Regional Weather Roundup
Issued by NWS

Home | Current Version | Previous Version | Graphics & Text | Print | Product List | Glossary On
Versions: 1 2 3 4 5 6 7 8 9 10 11 12 13 14 15 16 17 18 19 20 21 22 23 24 25 26 27 28 29 30 31 32 33 34 35 36 37 38 39 40 41 42 43 44 45 46 47 48 49 50
000
ASUS45 KTFX 281019
RWRMT
MONTANA HOURLY WEATHER ROUNDUP
NATIONAL WEATHER SERVICE GREAT FALLS MT
319 AM MST SAT FEB 28 2015

NOTE: "FAIR" INDICATES FEW OR NO CLOUDS BELOW 12000 FEET WITH NO
SIGNIFICANT WEATHER AND/OR OBSTRUCTIONS TO VISIBILITY.

* THESE STATIONS ARE NOT UNDER NWS QUALITY CONTROL. THEY DO NOT
   REPORT WEATHER SUCH AS PRECIPITATION OR FOG.

MTZ001>007-043-281100-
WEST OF THE DIVIDE
CITY           SKY/WX    TMP DP  RH WIND       PRES   REMARKS
KALISPELL      CLEAR     19   7  59 N10G17    30.07R WCI   8
MISSOULA       CLOUDY    23   5  46 E12       30.03R WCI  11
BUTTE          LGT SNOW  12   7  80 W3        29.91S
MULLAN PASS    CLOUDY    12   7  80 E8        29.81R
* ANACONDA     MOCLDY    12   3  67 N13G20     N/A   WCI  -3
* ESSEX        N/A        8   2  76 SE3        N/A
* EUREKA APT   CLEAR     16   9  74 CALM      30.12R
* HAMILTON APT PTCLDY    23   7  50 N8        29.94R WCI  14
* LIBBY APT    CLEAR     19   7  59 S3        30.10R
* LINCOLN      N/A       11   1  64 NE11G18    N/A   WCI  -3
* LOOKOUT PASS N/A       20   9  62 VRB4       N/A
* POLSON       N/A       19   5  54 NE2G8      N/A
* RONAN APT    CLEAR     27   7  42 E8         N/A   WCI  19
* SEELEY LAKE  N/A        9   3  76 NE1G6      N/A
* THOMP F APT  PTCLDY    16   6  64 NW6G14     N/A   WCI   7
$$

MTZ008-052>055-281100-
SOUTHWEST MONTANA
CITY           SKY/WX    TMP DP  RH WIND       PRES   REMARKS
BOZEMAN        MOCLDY    16  10  77 NW5       29.99R WCI   8
DILLON         CLOUDY    14   7  73 NE18      29.88R WCI  -3
* W YELLOWSTON PTCLDY     2  -3  79 N/A        N/A
* THREE FORKS  PTCLDY    18   7  62 N/A        N/A
* BOULDER HILL N/A        7   2  80 N12        N/A   WCI  -9
* MONIDA PASS  N/A       11   6  80 NW4        N/A
* RAYNOLDS PAS N/A        5   5 100 VRB9       N/A   WCI  -9
* WHITEHALL    N/A       16   7  67 NE6G12     N/A   WCI   7
* WISE RIVER   N/A       15   3  59 E10G17     N/A   WCI   3
$$

MTZ009>010-012-014-046-048-049-054-281100-
EAST SLOPES AND CENTRAL MONTANA
CITY           SKY/WX    TMP DP  RH WIND       PRES   REMARKS
CUT BANK       CLOUDY     9   7  91 NW10      30.10S WCI  -5
GREAT FALLS    CLOUDY    12   9  88 N10       30.11S WCI  -1
HELENA         CLOUDY    16   9  74 W7        30.07S WCI   6
MALMSTROM AFB  LGT SNOW  12   9  88 N8        30.13S
* CONRAD       PTCLDY     9   5  84 CALM       N/A
* DEARBORN     N/A       16  12  84 S1         N/A
* EAST GLACIER N/A        9   4  80 NE7        N/A   WCI  -2
* MONARCH      N/A        7   3  83 SW4        N/A
* PENDROY      N/A       11   8  88 N11G16     N/A   WCI  -3
* ROGERS PASS  N/A        7   3  83 S4         N/A
* SWEET GRASS  N/A        7   5  91 N4         N/A
* WHITE SULPH  N/A        1  -4  79 NE3        N/A
$$

MTZ011-013-016-021-035-040-045-047-050-051-281100-
NORTH CENTRAL MONTANA
CITY           SKY/WX    TMP DP  RH WIND       PRES   REMARKS
HAVRE          CLOUDY    10   7  88 NW12      30.18R WCI  -5
LEWISTOWN      CLOUDY    10   7  88 W7        30.06S WCI  -1
* N BAR RANCH  CLOUDY    10   3  73 NW21      30.00F WCI  -9
* CHINOOK      CLEAR     10   7  88 W8        30.18R WCI  -2
* FORT BENTON  PTCLDY    14   9  80 W3        30.18F
* MALTA APT    PTCLDY    10   3  73 W5         N/A   WCI   1
* CHESTER      N/A       11   5  77 SW3        N/A
* DENTON       N/A       11   7  84 W4         N/A
* GEYSER       N/A       12   7  80 W15        N/A   WCI  -4
* JUDITH GAP   N/A        9   7  91 N16G22     N/A   WCI  -8
* LOMA         N/A       14   9  80 W6         N/A   WCI   5
$$

MTZ017>020-022>027-061-062-281100-
NORTHEAST MONTANA
CITY           SKY/WX    TMP DP  RH WIND       PRES   REMARKS
GLASGOW        CLOUDY     9   1  70 NW3       30.13S
GLENDIVE       CLEAR      9   3  76 NW17G22   30.06R WCI  -9
JORDAN         CLEAR     10   5  80 W6        30.12R
SIDNEY         PTCLDY     9   1  70 N6        30.12R WCI  -1
WOLF POINT     PTCLDY     7   0  73 SW5       30.15R WCI  -2
* BEAVER HILL  N/A        6   3  87 W3G8       N/A
* CIRCLE       N/A        7   2  80 W3         N/A
* LINDSAY DVD  N/A        2  -2  83 NW10       N/A   WCI -13
* NAVAJO       N/A        1  -4  79 NW8        N/A   WCI -13
* PLENTYWOOD A PTCLDY    -4  -9  79 NW9       30.08S WCI -20
* POPLAR APT   PTCLDY     7  -2  66 W3        30.14S
* SACO         N/A       10   5  80 W5         N/A   WCI   1
* SCOBEY APT   MOCLDY     0 -13  53 N/A        N/A
$$

MTZ028>042-056>058-281100-
SOUTHCENTRAL AND SOUTHEAST MONTANA
CITY           SKY/WX    TMP DP  RH WIND       PRES   REMARKS
BAKER          CLEAR      9   3  76 W12       30.02S WCI  -6
BILLINGS       CLOUDY    18   9  68 CALM      30.06S
LIVINGSTON     LGT SNOW  16   9  74 NE5       29.98S WCI   8
MILES CITY     CLEAR      7   1  76 NW10      30.10R WCI  -7
* BIG TIMBER A PTCLDY    14   9  80 NE3       30.01S
* FORSYTH APT  CLEAR     14   3  61 NW7       30.12R WCI   4
* LAUREL APT   PTCLDY    12   3  67 N5         N/A   WCI   4
* ROUNDUP APT  PTCLDY    14   1  56 NW13       N/A
* ALZADA       N/A        9   4  80 SW8        N/A   WCI  -3
* HYSHAM       N/A       13   7  77 W6         N/A   WCI   4
* LAME DEER    N/A        8   4  84 NW6        N/A   WCI  -2
* REED POINT   N/A       15  10  80 E6         N/A   WCI   6
* ROSCOE HILL  N/A       11   5  77 SW3        N/A
$$

REGIONAL REPORTS...DAKOTAS
CITY           SKY/WX    TMP DP  RH WIND       PRES   REMARKS
WILLISTON      CLOUDY     7   0  73 N9        30.08S WCI  -6
DICKINSON      PTCLDY     5   0  80 SW6       29.97F WCI  -6
BEACH          CLOUDY     9   7  91 W10       30.03R WCI  -5
CROSBY         CLOUDY     0  -4  83 NW12      30.08F WCI -17
TIOGA          CLOUDY     5   1  83 N6        30.06R WCI  -6
WATFORD CITY   CLOUDY    10   5  80 NW9       30.02S WCI  -3
BISMARCK       CLOUDY    12   3  67 SE9       30.08F
GRAND FORKS    PTCLDY     1  -6  72 S10       30.25F WCI -15
FARGO          MOCLDY     7  -2  66 S14       30.29F WCI -10
BUFFALO SD     PTCLDY    10   5  80 NW8       29.92F WCI  -2
RAPID CITY     CLEAR      7   3  83 CALM      30.00S
$$

REGIONAL REPORTS...WYOMING/IDAHO/WASHINGTON
CITY           SKY/WX    TMP DP  RH WIND       PRES   REMARKS
GILLETTE       MOCLDY     9   3  76 NW7       29.98R WCI  -2
SHERIDAN       CLOUDY    12   5  73 NW8       30.04S
CODY           PTCLDY     9   7  91 N9        29.93S WCI  -4
YELLOWSTONE LA PTCLDY    -9 -15  74 CALM      29.77S
SALMON         CLOUDY   N/A N/A N/A SE17      29.82R
MULLAN PASS    CLOUDY    12   7  80 E8        29.81S
SAND POINT     CLEAR     30   7  38 NE20G28   30.03R WCI  17
SPOKANE        PTCLDY    30  10  43 NE15      29.94R WCI  19
$$

REGIONAL REPORTS...ALBERTA
CITY           SKY/WX    TMP DP  RH WIND       PRES   REMARKS
CALGARY        N/A        9   3  76 NW2       30.12S
LETHBRIDGE     CLEAR      5   3  91 SW8       30.17S WCI  -8
MEDICINE HAT   LGT SNOW   9   7  91 W6        30.21S WCI  -1
EDMONTON       PTCLDY     3  -2  79 W3        30.15F
WATERTON GATE  N/A       -4  -8  83 NE3        N/A
CARDSTON       N/A       10   9  96 W5         N/A   WCI   1
MILK RIVER     N/A        9   7  91 NW8        N/A   WCI  -3
$$

REGIONAL REPORTS...SASKATCHEWAN
CITY           SKY/WX    TMP DP  RH WIND       PRES   REMARKS
SWIFT CURRENT  LGT SNOW   5   1  83 NW15      30.09S WCI -13
REGINA         FAIR     -15 -20  77 NW7       30.11S WCI -31
VAL MARIE      N/A       10   5  80 NW15       N/A   WCI  -7
ASSINIBOIA     N/A        5   1  83 NW10       N/A   WCI -10
CORONACH       N/A        3   0  87 NW8        N/A   WCI -10

$$




USA.gov is the U.S. government's official web portal to all federal, state and local government web resources and services.